Weather in Staryye Burasy

Russia / Saratov Oblast     52°15′38″N   46°08′58″E
temp.,
°C
wind,
m/s
gust,
m/s
humid.,
%
clouds,
%
prec.,
mm/h
press.,
hPa
HPBL,
m
30 november, tue
tue3001:00+4sse92095100 1.1 1006776
04:00+4sse112494100 3.8 1001733
07:00+5s112084100 0.2 998880
10:00+5s102097100 2.2 995701
13:00+6s101997100 1.1 993909
16:00+8sw7148213 2.3 994620
19:00+6sw61271100 0.0 995344
22:00+3ssw6147249 0.0 997439
1 december, wed
wed101:00+2wsw367892 0.0 996126
04:00+1s2287100 0.0 99515
07:00+1ne1189100 0.0 99216
10:000n4899100 4.9 990320
13:000nw71297100 4.8 990630
16:00−1wnw71385100 5.6 993669
19:00−3w614845 0.0 997475
22:00−5w41289100 0.0 1000285
2 december, thu
thu201:00−4wsw5118898 0.0 1001322
04:00−4sw4109245 0.0 1002286
07:00−4sw51395100 0.0 1003424
10:00−3wsw6129379 0.1 1005645
13:00−2w711835 0.1 1007870
16:00−3wsw510835 0.1 1009358
19:00−5sw31089100 0.0 1011279
22:00−3ssw4108697 0.0 1011346
3 december, fri
fri301:00−3ssw51396100 0.1 1011521
04:00−1sw61498100 1.4 1011569
07:00+1sw61497100 0.1 1011574
10:00+1sw511100100 0.1 1013364
13:00+1sw512100100 0.0 1014419
16:00+1ssw49100100 0.0 1016257
19:00+1s39100100 0.1 1017255
22:00+1s411100100 0.1 1017326
4 december, sat
sat401:00+2s5159997 0.0 1016404
04:00+1s5158914 0.0 1016391
07:00+1s6179297 0.0 1015421
10:00+1s61797100 0.0 1015471
13:00+2s615100100 0.0 1015523
16:00+2s61398100 0.1 1014455
19:00+2s51298100 0.1 1015369
22:00+3s51299100 2.1 1014403